User: anonymous   Login
Location: Unspecified
(0.0000°N, 0.0000°E)
Time: 13:28:07
(UTC+00:00)
Language:

WGS F2 (USA 204) - Orbit

View from above orbital plane
View from above orbital plane
View from above satellite
View from above satellite

Ground track
Ground track

The orbit data is extracted from the following two-line orbital elements,

1 34713U 09017A   14345.57403593 0.00000000  00000-0  00000-0 0    01
2 34713   0.0250 347.1083 0003453 210.2786 149.7126  1.00270000    04
Epoch (UTC): 11 December 2014 13:46:36
Eccentricity: 0.0003453
inclination: 0.0250°
perigee height: 35772 km
apogee height: 35801 km
right ascension of ascending node: 347.1083°
argument of perigee: 210.2786°
revolutions per day: 1.00270000
mean anomaly at epoch: 149.7126°
orbit number at epoch: 0

The dashed part of the orbit path shows where the satellite is in the earth's shadow,  

DLR